STARLINK-3128 (49441 NORAD) Tracking and Keplerian Element Data

This shows tracking and keplerian element data for the satellite.

Feedback or suggestion? Click here.




ElementValue
Catalog49441
NameSTARLINK-3128
Epoch Orbit480
Epoch Day339.91667824
Epoch Year2021
RAAN22.2249
Inclination53.2191
Eccentricity0.0001929
Argument of Perigee37.1213
Mean Anonmoly38.4552
Mean Motion15.73188889
Decay Rate0.00046625
L11 49441U 21104AK 21339.91667824 .00046625 00000+0 33493-3 0 9998
L22 49441 53.2191 22.2249 0001929 37.1213 38.4552 15.73188889 4801

Live tracking and technical data element details for STARLINK-3128 (NORAD 49441). STARLINK-3128 can be tracked NOW for your location showing map with azimuth and elevation plus other details from your city location.

Track the satellite on the map from your city or location and see movement details for azimuth, elevation, latitude, longitude, range, height, and movement on the map or in text.







IsCatalogInMostPopularTable: catalog: 49441, numindb: -1

Insert: records affected: 1


GetName: 49441 STARLINK-3128

Hit Count: inserted at: Wed, 08 Dec 2021 16:45:11 GMT